Regional Weather Roundup
Issued by NWS Columbia, SC

Home | Current Version | Previous Version | Text Only | Print | Product List | Glossary On
Versions: 1 2 3 4 5 6 7 8 9 10 11 12 13 14 15 16 17 18 19 20 21 22 23 24 25 26 27 28 29 30 31 32 33 34 35 36 37 38 39 40 41 42 43 44 45 46 47 48 49 50
000
ASUS42 KCAE 010410
RWRCAE
REGIONAL WEATHER ROUNDUP
NATIONAL WEATHER SERVICE COLUMBIA SC
1100 PM EST SAT FEB 28 2015

NOTE: "FAIR" INDICATES FEW OR NO CLOUDS BELOW 12,000 FEET WITH NO
SIGNIFICANT WEATHER AND/OR OBSTRUCTIONS TO VISIBILITY.

NOT ALL STATIONS ARE QUALITY CONTROLLED BY THE NATIONAL
WEATHER SERVICE. USE DATA WITH CAUTION...ESPECIALLY
DEWPOINT OBSERVATIONS.

SCZ001>056-GAZ040-063>065-077-010500-
...UPSTATE SOUTH CAROLINA...

CITY           SKY/WX    TMP DP  RH WIND       PRES   REMARKS
ANDERSON       CLOUDY    40  23  50 NE7       30.62S
LIBERTY        CLOUDY    38  24  56 MISG      30.62R
SPARTANBURG    CLOUDY    37  23  56 NE6       30.65R WCI  33
CLEMSON        CLOUDY    41  21  44 NE9       30.63R
GREENVILLE     CLOUDY    37  21  52 NE10      30.63S WCI  30
GREENWOOD      CLOUDY    41  26  55 NE8       30.63S
GREER          CLOUDY    36  23  59 NE7       30.62S WCI  30
ROCK HILL      CLOUDY    36  18  48 VRB6      30.65F WCI  31
CHESTER        CLOUDY    37  21  52 NE8       30.66R WCI  31
LAURENS        CLOUDY    37  30  75 NE7       30.64R WCI  32


...CENTRAL SOUTH CAROLINA...

CITY           SKY/WX    TMP DP  RH WIND       PRES   REMARKS
COLUMBIA APT   CLOUDY    44  29  55 E8        30.62R
COLUMBIA OWENS LGT RAIN  43  29  57 E5        30.64R
DARLINGTON     CLOUDY    39  23  52 NE9       30.66F WCI  33
FLORENCE       LGT RAIN  39  27  62 NE8       30.64S WCI  33
ORANGEBURG     LGT RAIN  44  27  51 NE10      30.60S
SUMTER SHAW    LGT RAIN  39  32  75 NE12      30.61S WCI  32
NEWBERRY       LGT RAIN  39  28  65 NE10      30.65F WCI  32
AIKEN          LGT RAIN  41  34  75 NE8       30.63S
BARNWELL       CLOUDY    46  32  57 NE12      30.59R
MANNING        CLOUDY    45  30  57 NE5       30.61S
CAMDEN         LGT RAIN  41  19  42 NE10      30.64S
LANCASTER      CLOUDY    37  18  44 NE7       30.65F WCI  32
WINNSBORO      MOCLDY    41  27  56 NE8       30.63R


...EASTERN AND COASTAL SOUTH CAROLINA...

CITY           SKY/WX    TMP DP  RH WIND       PRES   REMARKS
MYRTLE BEACH   CLOUDY    43  25  49 NE12      30.63F
N MYRTLE BCH   CLOUDY    42  24  49 NE10      30.61F
CONWAY         CLOUDY    41  28  60 N7        30.62F
MARION         CLOUDY    41  25  52 NE10      30.65S
HARTSVILLE     CLOUDY    37  21  52 NE12      30.64S WCI  30
FLORENCE       LGT RAIN  39  27  62 NE8       30.64S WCI  33
DARLINGTON     CLOUDY    39  23  52 NE9       30.66F WCI  33
CHARLESTON APT CLOUDY    45  32  60 NE9       30.58F
MOUNT PLEASANT CLOUDY    45  32  61 NE6       30.58S
WALTERBORO     DRIZZLE   45  36  70 NE5       30.59R
BEAUFORT       CLOUDY    45  37  73 NE6       30.55F


...EASTERN GEORGIA...

CITY           SKY/WX    TMP DP  RH WIND       PRES   REMARKS
AUGUSTA BUSH F CLOUDY    42  36  79 NE7       30.61S
AUGUSTA DANIEL LGT RAIN  45  33  63 N9        30.60R
THOMSON        CLOUDY    46  37  69 NE5       30.64S
WASHINGTON     MOCLDY    43  37  81 NE5       30.60F
CLAXTON        RAIN      43  43 100 E10       30.54F
SYLVANIA       CLOUDY    43  41  94 NE9       30.56S
STATESBORO     CLOUDY    43  43 100 NE3       30.55F
SAVANNAH       CLOUDY    44  39  82 NE12      30.54F


...SOUTHERN NORTH CAROLINA...

CITY           SKY/WX    TMP DP  RH WIND       PRES   REMARKS
CHARLOTTE      CLOUDY    35  15  44 NE7       30.66F WCI  29
MONROE         CLOUDY    34  18  52 NE8       30.65S WCI  27
WADESBORO      CLOUDY    36  17  45 NE6       30.67F WCI  31
ROCKINGHAM       N/A     36  17  46 NE6       30.66F WCI  31
RUTHERFORDTON  MOCLDY    35  22  58 CALM      30.65F
ASHEVILLE      CLOUDY    32  21  64 S9        30.59S WCI  24

$$



USA.gov is the U.S. government's official web portal to all federal, state and local government web resources and services.